Sisseton, SD

6:31 PM CDT on July 20, 2017 (GMT -0500)
Sisseton

Weather History for K8D3 - July, 2013

Change the Weather History Date:

Saturday, July 20, 2013

  Actual Average Record
Temperature  
Mean Temperature 68 °F 72 °F  
Max Temperature 77 °F 84 °F 102 °F (1934)
Min Temperature 59 °F 60 °F 47 °F (1992)
Degree Days  
Heating Degree Days 0 0  
Month to date heating degree days 0 3  
Since 1 June heating degree days 69 65  
Since 1 July heating degree days 0 3  
Cooling Degree Days 3 7  
Month to date cooling degree days 188 129  
Year to date cooling degree days 330 246  
Since 1 June cooling degree days 305 223  
Growing Degree Days 16 (Base 50)    
Moisture  
Dew Point 60 °F    
Average Humidity 81    
Maximum Humidity 97    
Minimum Humidity 64    
Precipitation  
Precipitation 0.09 in 0.13 in 1.74 in (2001)
Month to date precipitation 2.32 2.42  
Year to date precipitation 17.24 13.14  
Sea Level Pressure  
Sea Level Pressure 29.91 in    
Wind  
Wind Speed 6 mph (North)    
Max Wind Speed 17 mph    
Max Gust Speed 28 mph    
T = Trace of Precipitation, MM = Missing Value Source: NWS Daily Summary

Daily Weather History Graph

Daily Weather History Graph

Search for Another Location

Airport or City:

Trip Planner

Search our weather history database for the weather conditions in past years. The results will help you decide how hot, cold, wet, or windy it might be!

Date:

Astronomy

Jul. 20, 2013 Rise Set
Actual Time 5:58 AM CDT 9:09 PM CDT
Civil Twilight 5:22 AM CDT 9:45 PM CDT
Nautical Twilight 4:35 AM CDT 10:31 PM CDT
Astronomical Twilight 3:38 AM CDT 11:28 PM CDT
Moon 7:13 PM CDT 3:39 AM CDT
Length of Visible Light 16h 23m
Length of Day
15h 11m
Waxing Gibbous, 94% of the Moon is Illuminated
Jul 20
Waxing Gibbous
Jul 22
Full
Jul 29
Last Quarter
Aug 6
New
Aug 14
First Quarter

Hourly Weather History & Observations

Time (CDT) Temp. Dew Point Humidity Pressure Visibility Wind Dir Wind Speed Gust Speed Precip Events Conditions
12:56 AM 63.0 °F 61.0 °F 93% 29.88 in - SW 5.8 mph - N/A   Unknown
1:56 AM 64.0 °F 60.1 °F 87% 29.88 in - Calm Calm - N/A   Unknown
2:56 AM 63.0 °F 59.0 °F 87% 29.86 in - NNW 4.6 mph - N/A   Unknown
3:56 AM 60.1 °F 57.9 °F 93% 29.87 in - North 3.5 mph - N/A   Unknown
4:56 AM 60.1 °F 57.0 °F 90% 29.88 in - NNW 4.6 mph - N/A   Unknown
5:56 AM 60.1 °F 57.9 °F 93% 29.88 in - NW 5.8 mph - N/A   Unknown
6:56 AM 61.0 °F 59.0 °F 93% 29.90 in - North 5.8 mph - N/A   Unknown
7:56 AM 61.0 °F 59.0 °F 93% 29.94 in - North 12.7 mph - N/A   Unknown
8:56 AM 60.1 °F 57.9 °F 93% 29.97 in - NW 6.9 mph - 0.07 in   Unknown
9:56 AM 62.1 °F 60.1 °F 93% 29.95 in - NNW 5.8 mph - 0.02 in   Unknown
10:56 AM 64.9 °F 61.0 °F 87% 29.95 in - North 6.9 mph - N/A   Unknown
11:56 AM 68.0 °F 62.1 °F 81% 29.93 in - NNE 9.2 mph - N/A   Unknown
12:56 PM 68.0 °F 62.1 °F 81% 29.93 in - NNE 8.1 mph - N/A   Unknown
1:56 PM 71.1 °F 62.1 °F 73% 29.92 in - North 6.9 mph - N/A   Unknown
2:56 PM 73.9 °F 64.0 °F 71% 29.91 in - ENE 10.4 mph - N/A   Unknown
3:56 PM 73.9 °F 62.1 °F 66% 29.91 in - NE 8.1 mph - N/A   Unknown
4:56 PM 73.9 °F 61.0 °F 64% 29.92 in - NE 8.1 mph - N/A   Unknown
5:56 PM 73.0 °F 60.1 °F 64% 29.91 in - ENE 6.9 mph - N/A   Unknown
6:56 PM 73.0 °F 60.1 °F 64% 29.90 in - NE 5.8 mph - N/A   Unknown
7:56 PM 72.0 °F 63.0 °F 73% 29.90 in - NNE 6.9 mph - N/A   Unknown
8:56 PM 66.9 °F 61.0 °F 81% 29.89 in - NNE 5.8 mph - N/A   Unknown
9:56 PM 64.0 °F 61.0 °F 90% 29.92 in - North 4.6 mph - N/A   Unknown
10:56 PM 62.1 °F 59.0 °F 90% 29.92 in - Calm Calm - N/A   Unknown
11:56 PM 63.0 °F 60.1 °F 90% 29.92 in - Calm Calm - N/A   Unknown